EW7186 Weather Reports


Display with metric or nautical units.
time (UTC)temp
F
wind
direction
speed
MPH
gust
MPH
rain 1hr
in
rain 24hr
in
rain mn
in
humidity
%
barometer
mb
20260510064602 63 0 0.0 0.0 0.00 0.00 0.00 88 1012.4
20260510063054 63 0 0.0 0.0 0.00 0.00 0.00 88 1012.5
20260510061558 63 0 0.0 0.0 0.00 0.00 0.00 88 1012.5
20260510060055 63 0 0.0 0.0 0.00 0.00 0.00 89 1012.5
20260510054554 63 0 0.0 0.0 0.00 0.00 0.00 89 1012.6
20260510053053 63 0 0.0 0.0 0.00 0.00 0.00 89 1012.8
20260510051558 63 0 0.0 0.0 0.00 0.00 0.00 89 1012.8
20260510050054 64 0 0.0 0.0 0.00 0.00 0.00 89 1012.9
20260510044637 64 0 0.0 0.0 0.00 0.00 0.00 89 1012.9
20260510043058 64 0 0.0 1.0 0.00 0.00 0.00 89 1013.0
20260510041557 64 0 0.0 0.0 0.00 0.00 0.00 89 1013.0
20260510040059 64 0 0.0 0.0 0.00 0.00 0.00 90 1012.9
20260510034554 64 0 0.0 0.0 0.00 0.00 0.00 90 1012.8
20260510033056 64 0 0.0 0.0 0.00 0.00 0.00 91 1012.9
20260510031550 64 0 0.0 0.0 0.00 0.00 0.00 91 1012.9
20260510030051 65 0 0.0 0.0 0.00 0.00 0.00 91 1012.9
20260510024552 65 0 0.0 0.0 0.00 0.00 0.00 90 1013.0
20260510023050 65 0 0.0 0.0 0.00 0.00 0.00 90 1012.9
20260510021552 66 0 0.0 0.0 0.00 0.00 0.00 89 1013.0
20260510020051 66 0 0.0 0.0 0.00 0.00 0.00 89 1012.9
20260510014554 67 0 0.0 0.0 0.00 0.00 0.00 88 1012.6
20260510013053 67 0 0.0 0.0 0.00 0.00 0.00 87 1012.3
20260510011556 67 0 0.0 0.0 0.00 0.00 0.00 86 1012.2
20260510010123 68 0 0.0 0.0 0.00 0.00 0.00 86 1012.1
20260510004549 68 0 0.0 0.0 0.00 0.00 0.00 85 1011.9
20260510003054 69 0 0.0 1.0 0.00 0.00 0.00 84 1011.7
20260510001556 69 0 0.0 0.0 0.00 0.00 0.00 83 1011.3
20260510000058 70 0 0.0 0.0 0.00 0.00 0.00 81 1011.1
20260509234606 70 0 0.0 0.0 0.00 0.00 0.00 80 1011.0
20260509233051 71 0 0.0 0.0 0.00 0.00 0.00 79 1011.0
20260509231553 71 0 0.0 0.0 0.00 0.00 0.00 78 1010.9
20260509230054 72 0 0.0 0.0 0.00 0.00 0.00 78 1010.7
20260509224552 72 0 0.0 3.0 0.00 0.00 0.00 76 1010.7
20260509223047 72 267 0.0 2.0 0.00 0.00 0.00 75 1010.6
20260509221549 73 0 0.0 0.0 0.00 0.00 0.00 75 1010.7
20260509220057 73 0 1.0 3.0 0.00 0.00 0.00 75 1010.8
20260509214554 73 233 1.0 3.0 0.00 0.00 0.00 75 1010.6
20260509213053 73 252 0.0 4.0 0.00 0.00 0.00 74 1010.7
20260509211554 73 0 0.0 5.0 0.00 0.00 0.00 73 1010.6
20260509210051 73 0 0.0 3.0 0.00 0.00 0.00 74 1010.7
20260509204548 73 0 0.0 4.0 0.00 0.00 0.00 73 1010.8
20260509203114 73 233 2.0 6.0 0.00 0.00 0.00 73 1010.9
20260509201604 73 214 3.0 5.0 0.00 0.00 0.00 73 1011.0
20260509200059 72 215 2.0 7.0 0.00 0.00 0.00 74 1011.1
20260509194554 72 222 0.0 3.0 0.00 0.00 0.00 76 1011.2
20260509193102 72 0 0.0 4.0 0.00 0.00 0.00 75 1011.3
20260509191602 72 217 0.0 4.0 0.00 0.00 0.00 75 1011.4
20260509190052 72 248 0.0 4.0 0.00 0.00 0.00 75 1011.5
20260509184556 72 0 0.0 3.0 0.00 0.00 0.00 76 1011.4
20260509183054 72 0 0.0 3.0 0.00 0.00 0.00 76 1011.5
20260509181600 71 0 0.0 4.0 0.00 0.00 0.00 77 1011.4
20260509180104 72 223 1.0 4.0 0.00 0.00 0.00 75 1011.6
20260509174557 72 0 0.0 3.0 0.00 0.00 0.00 74 1011.5
20260509173102 72 0 0.0 0.0 0.00 0.00 0.00 76 1011.5
20260509171552 71 215 0.0 5.0 0.00 0.00 0.00 75 1011.3
20260509170058 71 200 2.0 5.0 0.00 0.00 0.00 74 1011.6
20260509164602 71 0 0.0 6.0 0.00 0.00 0.00 74 1011.6
20260509163052 71 0 0.0 7.0 0.00 0.00 0.00 75 1011.8
20260509161558 71 219 2.0 5.0 0.00 0.00 0.00 76 1011.8
20260509160057 70 0 0.0 4.0 0.00 0.00 0.00 78 1011.8
20260509154555 70 0 1.0 5.0 0.00 0.00 0.00 79 1012.5
20260509153050 69 0 0.0 4.0 0.00 0.00 0.00 81 1012.5
20260509151550 68 0 0.0 5.0 0.00 0.00 0.00 83 1012.5
20260509150056 67 0 0.0 5.0 0.00 0.00 0.00 83 1012.5
20260509144604 67 0 1.0 4.0 0.00 0.00 0.00 83 1012.5
20260509143100 66 0 0.0 5.0 0.00 0.00 0.00 85 1012.7
20260509141553 66 221 0.0 6.0 0.00 0.00 0.00 85 1012.9
20260509140104 66 216 3.0 5.0 0.00 0.00 0.00 84 1012.9
20260509134601 66 196 1.0 5.0 0.00 0.00 0.00 85 1012.6
20260509133105 66 213 0.0 3.0 0.00 0.00 0.00 85 1012.5
20260509131612 66 0 0.0 2.0 0.00 0.00 0.00 86 1012.7
20260509124553 66 0 1.0 6.0 0.00 0.00 0.00 84 1012.8
20260509123058 66 0 0.0 2.0 0.00 0.00 0.00 84 1012.5
20260509121554 65 0 0.0 0.0 0.00 0.00 0.00 87 1012.4
20260509120058 62 0 0.0 3.0 0.00 0.00 0.00 90 1012.8
20260509114551 62 0 1.0 2.0 0.00 0.00 0.00 89 1012.9
20260509113050 62 0 0.0 2.0 0.00 0.00 0.00 90 1013.1
20260509111551 61 0 0.0 2.0 0.00 0.00 0.00 90 1013.0
20260509110052 61 0 1.0 2.0 0.00 0.00 0.00 90 1013.1
20260509104552 61 0 0.0 1.0 0.00 0.00 0.00 90 1013.0
20260509103050 60 214 0.0 2.0 0.00 0.00 0.00 90 1012.6
20260509101551 60 0 0.0 1.0 0.00 0.00 0.00 91 1012.2
20260509100050 60 0 0.0 0.0 0.00 0.00 0.00 90 1011.8
20260509094550 60 0 0.0 0.0 0.00 0.00 0.00 90 1011.8
20260509093053 61 0 0.0 0.0 0.00 0.00 0.00 89 1011.6
20260509091555 61 0 0.0 0.0 0.00 0.00 0.00 89 1011.4
20260509090050 61 0 0.0 2.0 0.00 0.00 0.00 88 1011.5
20260509084550 61 0 0.0 0.0 0.00 0.00 0.00 88 1011.5
20260509083054 62 0 0.0 0.0 0.00 0.00 0.00 87 1011.8
20260509081555 62 0 0.0 1.0 0.00 0.00 0.00 87 1011.8
20260509080049 62 0 0.0 0.0 0.00 0.00 0.00 87 1011.9
20260509074549 61 0 0.0 0.0 0.00 0.00 0.00 87 1012.0
20260509073054 61 0 0.0 0.0 0.00 0.00 0.00 87 1012.4
20260509071555 61 0 0.0 0.0 0.00 0.00 0.00 86 1012.4
20260509070059 61 0 0.0 0.0 0.00 0.00 0.00 85 1012.8